"TOA5","MOW","CPU:UNC_MeetingWaters","DataHourly"
"TIMESTAMP","SondeTempC","SpCond","DOSat","DOmg","pH","Turb","BattVolt_Min"
"TS","","","","","","",""
"","Smp","Smp","Smp","Smp","Smp","Smp","Min"
"2004-11-01 00:00:00",18.1299991608,0.0010000000475,0.5,0.0500000007451,7.80999994278,2.40000009537,12.4300003052
"2004-11-01 01:00:00",17.9200000763,0.0010000000475,0.5,0.0500000007451,7.82999992371,2.29999995232,12.4099998474
"2004-11-01 02:00:00",17.8199996948,0.0010000000475,0.5,0.0500000007451,7.96000003815,2.59999990463,12.4099998474
"2004-11-01 03:00:00",17.6100006104,0.0010000000475,0.5,0.0500000007451,8.03999996185,2.5,12.3900003433
"2004-11-01 04:00:00",17.4899997711,0.0010000000475,0.5,0.0500000007451,7.88000011444,2.20000004768,12.3900003433
"2004-11-01 05:00:00",17.2900009155,0.0010000000475,0.5,0.0500000007451,7.84999990463,2.20000004768,12.3800001144
"2004-11-01 06:00:00",17.3899993896,0.0010000000475,0.5,0.0500000007451,7.82999992371,2.09999990463,12.3599996567
"2004-11-01 07:00:00",17.3400001526,0.0010000000475,0.5,0.0500000007451,7.80999994278,2.09999990463,12.3599996567
"2004-11-01 08:00:00",16.9899997711,0.0010000000475,0.5,0.0500000007451,7.82999992371,2.0,12.3400001526
"2004-11-01 09:00:00",16.8799991608,0.0010000000475,0.5,0.0500000007451,7.84999990463,2.40000009537,12.3299999237
"2004-11-01 10:00:00",17.0300006866,0.00200000009499,0.5,0.0500000007451,7.86999988556,1.89999997616,12.4099998474
"2004-11-01 11:00:00",17.6599998474,0.00200000009499,0.5,0.0399999991059,7.94999980927,1.89999997616,12.529999733
"2004-11-01 12:00:00",18.3899993896,0.00200000009499,0.5,0.0399999991059,7.88000011444,1.79999995232,12.6300001144
"2004-11-01 13:00:00",19.3700008392,0.0010000000475,0.600000023842,0.0500000007451,7.82999992371,1.79999995232,13.1400003433
"2004-11-01 14:00:00",20.0400009155,0.0010000000475,0.5,0.0500000007451,7.80999994278,1.70000004768,12.8100004196
"2004-11-01 15:00:00",19.6599998474,0.0010000000475,0.5,0.0500000007451,7.86000013351,2.09999990463,13.0100002289
"2004-11-01 16:00:00",19.9200000763,0.0010000000475,0.5,0.0500000007451,7.84999990463,1.70000004768,13.0699996948
"2004-11-01 17:00:00",19.9500007629,0.0010000000475,0.5,0.0500000007451,7.86000013351,1.60000002384,12.5900001526
"2004-11-01 18:00:00",19.6599998474,0.0010000000475,0.40000000596,0.0399999991059,7.84000015259,1.60000002384,12.5399999619
"2004-11-01 19:00:00",19.2900009155,0.0010000000475,0.5,0.0500000007451,7.84000015259,1.70000004768,12.5100002289
"2004-11-01 20:00:00",19.0400009155,0.0010000000475,0.5,0.0500000007451,7.88999986649,1.79999995232,12.4799995422
"2004-11-01 21:00:00",18.8299999237,0.0010000000475,0.5,0.0500000007451,7.90999984741,1.89999997616,12.470000267
"2004-11-01 22:00:00",18.6399993896,0.0010000000475,0.5,0.0500000007451,7.88000011444,2.20000004768,12.4600000381
"2004-11-01 23:00:00",18.6000003815,0.0010000000475,0.5,0.0500000007451,7.86000013351,2.0,12.4499998093
"2004-11-02 00:00:00",18.5499992371,0.0010000000475,0.5,0.0500000007451,7.84999990463,2.20000004768,12.4399995804
"2004-11-02 01:00:00",18.3899993896,0.0010000000475,0.5,0.0500000007451,7.84000015259,2.40000009537,12.4300003052
"2004-11-02 02:00:00",18.1299991608,0.0010000000475,0.5,0.0500000007451,7.84999990463,3.0,12.4099998474
"2004-11-02 03:00:00",17.9400005341,0.0010000000475,0.5,0.0500000007451,7.84000015259,2.29999995232,12.3999996185
"2004-11-02 04:00:00",17.6599998474,0.0010000000475,0.5,0.0500000007451,7.84999990463,2.20000004768,12.3900003433
"2004-11-02 05:00:00",17.3099994659,0.0010000000475,0.5,0.0500000007451,7.86000013351,2.09999990463,12.3699998856
"2004-11-02 06:00:00",16.9799995422,0.0010000000475,0.5,0.0500000007451,7.86999988556,2.0,12.3500003815
"2004-11-02 07:00:00",16.8400001526,0.0010000000475,0.5,0.0500000007451,7.86000013351,2.09999990463,12.3400001526
"2004-11-02 08:00:00",16.6100006104,0.0010000000475,0.5,0.0500000007451,7.86000013351,2.0,12.3299999237
"2004-11-02 09:00:00",17.2399997711,0.00200000009499,0.5,0.0500000007451,7.86000013351,2.09999990463,12.3299999237
"2004-11-02 10:00:00",17.6399993896,0.00200000009499,0.5,0.0500000007451,7.94000005722,2.0,12.4099998474
"2004-11-02 11:00:00",18.0,0.00200000009499,0.5,0.0500000007451,7.92999982834,1.89999997616,12.4200000763
"2004-11-02 12:00:00",18.4799995422,0.00200000009499,0.5,0.0500000007451,7.92999982834,2.09999990463,12.6599998474
"2004-11-02 13:00:00",19.0799999237,0.0010000000475,0.5,0.0500000007451,7.92000007629,1.89999997616,12.8699998856
"2004-11-02 14:00:00",19.2700004578,0.0010000000475,0.600000023842,0.0500000007451,7.88000011444,2.0,12.9200000763
"2004-11-02 15:00:00",19.7399997711,0.0010000000475,0.5,0.0500000007451,7.86000013351,2.0,12.9300003052
"2004-11-02 16:00:00",19.4200000763,0.0010000000475,0.5,0.0500000007451,7.88000011444,3.0,12.6199998856
"2004-11-02 17:00:00",19.4699993134,0.0010000000475,0.5,0.0500000007451,7.86000013351,1.79999995232,12.5500001907
"2004-11-02 18:00:00",19.4500007629,0.0010000000475,0.5,0.0500000007451,7.84000015259,1.79999995232,12.5100002289
"2004-11-02 19:00:00",19.1900005341,0.0010000000475,0.5,0.0500000007451,7.82000017166,1.79999995232,12.4899997711
"2004-11-02 20:00:00",18.9899997711,0.0010000000475,0.5,0.0500000007451,7.84000015259,1.79999995232,12.470000267
"2004-11-02 21:00:00",18.8400001526,0.0010000000475,0.5,0.0500000007451,7.88000011444,2.09999990463,12.4499998093
"2004-11-02 22:00:00",18.7199993134,0.0010000000475,0.5,0.0500000007451,7.90000009537,2.0,12.4399995804
"2004-11-02 23:00:00",18.7199993134,0.00200000009499,0.5,0.0500000007451,7.82999992371,2.0,12.4300003052
"2004-11-03 00:00:00",18.6599998474,0.00200000009499,0.5,0.0500000007451,7.84000015259,2.0,12.4099998474
"2004-11-03 01:00:00",18.7199993134,0.00200000009499,0.5,0.0500000007451,7.84000015259,1.89999997616,12.3900003433
"2004-11-03 02:00:00",18.7900009155,0.00200000009499,0.5,0.0500000007451,7.82000017166,2.0,12.3800001144
"2004-11-03 03:00:00",18.8400001526,0.00200000009499,0.5,0.0500000007451,7.82999992371,2.29999995232,12.3699998856
"2004-11-03 04:00:00",18.8400001526,0.00200000009499,0.5,0.0500000007451,7.88000011444,2.40000009537,12.3599996567
"2004-11-03 05:00:00",18.8700008392,0.00200000009499,0.5,0.0500000007451,7.90000009537,2.5,12.3599996567
"2004-11-03 06:00:00",18.8799991608,0.00200000009499,0.5,0.0500000007451,7.88999986649,2.79999995232,12.3599996567
"2004-11-03 07:00:00",18.8899993896,0.00200000009499,0.5,0.0500000007451,7.84999990463,2.70000004768,12.3500003815
"2004-11-03 08:00:00",18.8899993896,0.00200000009499,0.5,0.0500000007451,7.86999988556,2.40000009537,12.3400001526
"2004-11-03 09:00:00",18.9500007629,0.00200000009499,0.5,0.0500000007451,7.86999988556,2.09999990463,12.3400001526
"2004-11-03 10:00:00",19.0400009155,0.00200000009499,0.5,0.0500000007451,7.80000019073,27.5,12.3400001526
"2004-11-03 11:00:00",19.1399993896,0.374000012875,0.600000023842,0.0599999986589,7.71000003815,9.60000038147,12.3500003815
"2004-11-03 12:00:00",19.6399993896,0.266000002623,0.600000023842,0.0500000007451,7.69000005722,60.0,12.6800003052
"2004-11-03 13:00:00",20.0499992371,0.185000002384,0.600000023842,0.0500000007451,7.59000015259,56.9000015259,12.9899997711
"2004-11-03 14:00:00",20.2399997711,0.00300000002608,0.5,0.0500000007451,7.48999977112,40.9000015259,12.6999998093
"2004-11-03 15:00:00",20.4500007629,0.00200000009499,0.5,0.0399999991059,7.44999980927,33.9000015259,12.6099996567
"2004-11-03 16:00:00",20.3600006104,0.00200000009499,0.5,0.0399999991059,7.42999982834,27.8999996185,12.5900001526
"2004-11-03 17:00:00",20.2299995422,0.00400000018999,0.5,0.0399999991059,7.42999982834,23.5,12.5100002289
"2004-11-03 18:00:00",20.0699996948,0.00200000009499,0.40000000596,0.0399999991059,7.42000007629,21.0,12.2100000381
"2004-11-03 18:00:00",19.8099994659,0.00200000009499,0.40000000596,0.0399999991059,7.42999982834,16.7999992371,12.4499998093
"2004-11-03 19:00:00",19.5699996948,0.00200000009499,0.40000000596,0.0399999991059,7.44000005722,12.8000001907,12.4099998474
"2004-11-03 20:00:00",19.1499996185,0.00200000009499,0.40000000596,0.0399999991059,7.46000003815,11.1000003815,12.3699998856
"2004-11-03 21:00:00",18.4899997711,0.0010000000475,0.40000000596,0.0399999991059,7.57999992371,8.80000019073,12.3500003815
"2004-11-03 22:00:00",18.0300006866,0.0010000000475,0.40000000596,0.0399999991059,8.14999961853,7.69999980927,12.3299999237
"2004-11-03 23:00:00",17.8199996948,0.0010000000475,0.40000000596,0.0399999991059,8.18000030518,7.69999980927,12.3100004196
"2004-11-04 00:00:00",17.9899997711,0.0010000000475,0.40000000596,0.0399999991059,7.94999980927,6.90000009537,12.3000001907
"2004-11-04 01:00:00",17.0900001526,0.0010000000475,0.40000000596,0.0399999991059,8.13000011444,5.09999990463,12.3000001907
"2004-11-04 02:00:00",16.5400009155,0.0010000000475,0.40000000596,0.0399999991059,7.98999977112,4.40000009537,12.3000001907
"2004-11-04 03:00:00",15.8500003815,0.0010000000475,0.40000000596,0.0399999991059,8.0,4.19999980927,12.279999733
"2004-11-04 04:00:00",17.75,0.21400000155,0.600000023842,0.0500000007451,7.80000019073,552.099975586,12.2600002289
"2004-11-04 05:00:00",17.1900005341,0.137999996543,0.5,0.0500000007451,7.71000003815,310.299987793,12.25
"2004-11-04 06:00:00",16.8400001526,0.116999998689,0.5,0.0500000007451,7.55000019073,83.5999984741,12.2299995422
"2004-11-04 07:00:00",16.6100006104,0.118000000715,0.5,0.0500000007451,7.42999982834,74.0,12.2299995422
"2004-11-04 08:00:00",16.4200000763,0.082000002265,0.5,0.0500000007451,7.34999990463,64.1999969482,12.2100000381
"2004-11-04 09:00:00",16.2600002289,0.070000000298,0.5,0.0399999991059,7.34000015259,50.0999984741,12.2100000381
"2004-11-04 10:00:00",16.1000003815,0.00200000009499,0.40000000596,0.0399999991059,7.34999990463,40.7000007629,12.1999998093
"2004-11-04 11:00:00",16.0799999237,0.0010000000475,0.40000000596,0.0399999991059,7.34000015259,36.2999992371,12.220000267
"2004-11-04 12:00:00",16.0799999237,0.0010000000475,0.40000000596,0.0399999991059,7.34000015259,30.7000007629,12.2100000381
"2004-11-04 13:00:00",16.1000003815,0.0010000000475,0.40000000596,0.0399999991059,7.36000013351,25.5,12.220000267
"2004-11-04 14:00:00",16.1900005341,0.00200000009499,0.40000000596,0.0399999991059,7.38000011444,21.7000007629,12.1999998093
"2004-11-04 15:00:00",16.2900009155,0.00300000002608,0.40000000596,0.0399999991059,7.38999986649,78.9000015259,12.220000267
"2004-11-04 16:00:00",16.5400009155,0.22499999404,0.5,0.0500000007451,7.5,121.0,12.1999998093
"2004-11-04 17:00:00",18.1499996185,0.145999997854,0.5,0.0500000007451,7.76000022888,479.100006104,12.1999998093
"2004-11-04 18:00:00",18.0200004578,0.136999994516,0.5,0.0500000007451,7.69999980927,269.799987793,12.1999998093
"2004-11-04 19:00:00",17.8600006104,0.142000004649,0.5,0.0500000007451,7.57000017166,217.699996948,12.1999998093
"2004-11-04 20:00:00",17.7299995422,0.141000002623,0.5,0.0500000007451,7.5,190.100006104,12.1899995804
"2004-11-04 21:00:00",17.5400009155,0.10000000149,0.5,0.0500000007451,7.44999980927,136.300003052,12.1800003052
"2004-11-04 22:00:00",17.2099990845,0.0810000002384,0.40000000596,0.0399999991059,7.42000007629,119.099998474,12.1700000763
"2004-11-04 23:00:00",16.7900009155,0.0850000008941,0.5,0.0399999991059,7.40999984741,101.099998474,12.1599998474
"2004-11-05 00:00:00",16.5400009155,0.00499999988824,0.40000000596,0.0399999991059,7.40000009537,111.300003052,12.1400003433
"2004-11-05 01:00:00",16.1399993896,0.00300000002608,0.40000000596,0.0399999991059,7.42000007629,86.3000030518,12.1300001144
"2004-11-05 02:00:00",15.8900003433,0.00200000009499,0.40000000596,0.0399999991059,7.42000007629,68.0,12.1199998856
"2004-11-05 03:00:00",15.6000003815,0.00200000009499,0.40000000596,0.0399999991059,7.42000007629,58.7999992371,12.1099996567
"2004-11-05 04:00:00",15.2299995422,0.0010000000475,0.40000000596,0.0399999991059,7.44999980927,48.5999984741,12.1000003815
"2004-11-05 05:00:00",14.9300003052,0.0010000000475,0.40000000596,0.0399999991059,7.48999977112,37.2999992371,12.0900001526
"2004-11-05 06:00:00",14.1099996567,0.0010000000475,0.40000000596,0.0399999991059,7.55999994278,29.0,12.0799999237
"2004-11-05 07:00:00",13.720000267,0.0010000000475,0.40000000596,0.0399999991059,7.57999992371,23.3999996185,12.0699996948
"2004-11-05 08:00:00",13.5200004578,0.0010000000475,0.40000000596,0.0399999991059,7.61000013351,19.0,12.0699996948
"2004-11-05 09:00:00",12.9499998093,0.0010000000475,0.40000000596,0.0399999991059,7.63999986649,15.6999998093,12.3800001144
"2004-11-05 10:00:00",13.4799995422,0.0010000000475,0.40000000596,0.0399999991059,7.67999982834,13.6999998093,12.4399995804
"2004-11-05 11:00:00",13.6099996567,0.0,0.40000000596,0.0399999991059,7.69000005722,11.8000001907,12.529999733
"2004-11-05 12:00:00",14.5699996948,0.0,0.40000000596,0.0399999991059,7.67999982834,11.0,13.25
"2004-11-05 13:00:00",15.0,0.0,0.40000000596,0.0399999991059,7.63999986649,10.5,12.9399995804
"2004-11-05 14:00:00",14.8900003433,0.0,0.40000000596,0.0399999991059,7.67000007629,10.1000003815,13.2600002289
"2004-11-05 15:00:00",14.9600000381,0.0,0.40000000596,0.0399999991059,7.67999982834,10.1999998093,12.8800001144
"2004-11-05 16:00:00",14.5500001907,0.0,0.40000000596,0.0399999991059,7.71999979019,10.8000001907,12.5799999237
"2004-11-05 17:00:00",14.3000001907,0.0010000000475,0.40000000596,0.0399999991059,7.80999994278,13.8000001907,12.5200004578
"2004-11-05 18:00:00",13.6199998856,0.0010000000475,0.40000000596,0.0399999991059,7.84000015259,15.5,12.4799995422
"2004-11-05 19:00:00",12.8699998856,0.0010000000475,0.40000000596,0.0399999991059,7.92000007629,17.0,12.4399995804
"2004-11-05 20:00:00",12.5200004578,0.0010000000475,0.40000000596,0.0399999991059,7.96999979019,16.2000007629,12.4200000763
"2004-11-05 21:00:00",12.1400003433,0.0010000000475,0.40000000596,0.0399999991059,8.01000022888,15.0,12.3999996185
"2004-11-05 22:00:00",11.1599998474,0.0010000000475,0.40000000596,0.0399999991059,8.19999980927,14.0,12.3800001144
"2004-11-05 23:00:00",10.1499996185,0.0010000000475,0.40000000596,0.0399999991059,8.22000026703,12.3999996185,12.3699998856
"2004-11-06 00:00:00",10.3599996567,0.0010000000475,0.40000000596,0.0399999991059,8.22000026703,12.0,12.3500003815
"2004-11-06 01:00:00",10.2100000381,0.0010000000475,0.40000000596,0.0399999991059,8.18999958038,11.6999998093,12.3400001526
"2004-11-06 02:00:00",9.22999954224,0.0010000000475,0.40000000596,0.0399999991059,8.18999958038,11.1999998093,12.3299999237
"2004-11-06 03:00:00",9.18000030518,0.0010000000475,0.40000000596,0.0399999991059,8.13000011444,10.6999998093,12.3199996948
"2004-11-06 04:00:00",8.52999973297,0.0010000000475,0.300000011921,0.0399999991059,8.09000015259,10.3000001907,12.3100004196
"2004-11-06 05:00:00",8.39000034332,0.0010000000475,0.40000000596,0.0399999991059,8.05000019073,9.60000038147,12.3000001907
"2004-11-06 06:00:00",8.14999961853,0.0010000000475,0.40000000596,0.0399999991059,8.01000022888,9.10000038147,12.2899999619
"2004-11-06 07:00:00",9.67000007629,0.0010000000475,0.40000000596,0.0399999991059,7.96000003815,8.80000019073,12.279999733
"2004-11-06 08:00:00",9.72000026703,0.0010000000475,0.40000000596,0.0399999991059,7.84999990463,8.60000038147,12.2700004578
"2004-11-06 09:00:00",9.77999973297,0.0010000000475,0.40000000596,0.0399999991059,7.96999979019,8.5,12.5900001526
"2004-11-06 10:00:00",10.8599996567,0.0010000000475,0.40000000596,0.0399999991059,7.88000011444,8.10000038147,12.5600004196
"2004-11-06 11:00:00",10.8699998856,0.0010000000475,0.40000000596,0.0399999991059,8.05000019073,8.10000038147,12.6300001144
"2004-11-06 12:00:00",13.1899995804,0.0,0.40000000596,0.0500000007451,8.10000038147,7.90000009537,13.3900003433
"2004-11-06 13:00:00",14.0500001907,0.0,0.40000000596,0.0399999991059,7.96999979019,7.69999980927,13.3699998856
"2004-11-06 14:00:00",12.8999996185,0.0,0.40000000596,0.0399999991059,8.10000038147,7.90000009537,13.3100004196
"2004-11-06 15:00:00",13.6300001144,0.0,0.40000000596,0.0399999991059,7.90000009537,7.90000009537,12.75
"2004-11-06 16:00:00",13.3500003815,0.0,0.40000000596,0.0399999991059,7.82000017166,7.69999980927,12.5699996948
"2004-11-06 17:00:00",13.0200004578,0.0010000000475,0.40000000596,0.0399999991059,7.78999996185,7.69999980927,12.5100002289
"2004-11-06 18:00:00",12.2600002289,0.0010000000475,0.40000000596,0.0399999991059,7.80000019073,7.69999980927,12.4899997711
"2004-11-06 19:00:00",11.8699998856,0.0010000000475,0.40000000596,0.0399999991059,7.82999992371,7.40000009537,12.4600000381
"2004-11-06 20:00:00",11.3800001144,0.0010000000475,0.40000000596,0.0399999991059,7.86000013351,7.5,12.4300003052
"2004-11-06 21:00:00",12.0900001526,0.0010000000475,0.40000000596,0.0399999991059,8.06000041962,7.5,12.4099998474
"2004-11-06 22:00:00",11.1800003052,0.0010000000475,0.40000000596,0.0399999991059,8.10999965668,7.69999980927,12.3900003433
"2004-11-06 23:00:00",10.220000267,0.0010000000475,0.40000000596,0.0399999991059,8.10000038147,7.69999980927,12.3800001144
"2004-11-07 00:00:00",11.220000267,0.0010000000475,0.40000000596,0.0399999991059,8.13000011444,7.69999980927,12.3599996567
"2004-11-07 01:00:00",11.0500001907,0.0010000000475,0.40000000596,0.0399999991059,7.88000011444,8.0,12.3400001526
"2004-11-07 02:00:00",9.63000011444,0.0010000000475,0.40000000596,0.0399999991059,8.14999961853,8.39999961853,12.3299999237
"2004-11-07 03:00:00",9.05000019073,0.0010000000475,0.40000000596,0.0399999991059,8.05000019073,8.5,12.3199996948
"2004-11-07 04:00:00",9.11999988556,0.0010000000475,0.40000000596,0.0399999991059,8.17000007629,9.0,12.3100004196
"2004-11-07 05:00:00",8.67000007629,0.0010000000475,0.40000000596,0.0500000007451,8.02999973297,8.69999980927,12.3000001907
"2004-11-07 06:00:00",9.02999973297,0.0010000000475,0.40000000596,0.0399999991059,8.05000019073,8.30000019073,12.279999733
"2004-11-07 07:00:00",8.94999980927,0.0010000000475,0.40000000596,0.0399999991059,8.02000045776,8.10000038147,12.279999733
"2004-11-07 08:00:00",10.0500001907,0.0010000000475,0.40000000596,0.0399999991059,8.01000022888,7.90000009537,12.2700004578
"2004-11-07 09:00:00",10.2299995422,0.0010000000475,0.40000000596,0.0399999991059,8.02000045776,7.80000019073,12.5200004578
"2004-11-07 10:00:00",11.3100004196,0.00200000009499,0.40000000596,0.0399999991059,8.02999973297,7.59999990463,12.5900001526
"2004-11-07 11:00:00",12.1599998474,0.0010000000475,0.40000000596,0.0399999991059,8.03999996185,7.69999980927,12.6700000763
"2004-11-07 12:00:00",14.3000001907,0.0010000000475,0.40000000596,0.0399999991059,7.98999977112,7.09999990463,13.3400001526
"2004-11-07 13:00:00",14.8999996185,0.0010000000475,0.40000000596,0.0399999991059,7.96000003815,6.90000009537,13.3199996948
"2004-11-07 14:00:00",14.7700004578,0.0,0.40000000596,0.0399999991059,7.96000003815,7.0,13.2600002289
"2004-11-07 15:00:00",14.5699996948,0.0,0.40000000596,0.0399999991059,8.02000045776,7.0,12.6999998093
"2004-11-07 16:00:00",14.3400001526,0.0010000000475,0.40000000596,0.0399999991059,8.19999980927,7.0,12.5799999237
"2004-11-07 17:00:00",14.1499996185,0.0010000000475,0.40000000596,0.0399999991059,7.82000017166,7.09999990463,12.529999733
"2004-11-07 18:00:00",13.7100000381,0.0010000000475,0.40000000596,0.0399999991059,7.82000017166,7.80000019073,12.5
"2004-11-07 19:00:00",13.25,0.0010000000475,0.40000000596,0.0399999991059,8.10000038147,7.30000019073,12.4600000381
"2004-11-07 20:00:00",12.7100000381,0.0010000000475,0.40000000596,0.0399999991059,8.22999954224,7.40000009537,12.4399995804
"2004-11-07 21:00:00",12.3299999237,0.0010000000475,0.40000000596,0.0399999991059,8.21000003815,7.40000009537,12.4200000763
"2004-11-07 22:00:00",12.2399997711,0.0010000000475,0.40000000596,0.0399999991059,8.17000007629,7.59999990463,12.3999996185
"2004-11-07 23:00:00",11.9799995422,0.0010000000475,0.40000000596,0.0399999991059,8.15999984741,8.5,12.3900003433
"2004-11-08 00:00:00",12.0399999619,0.0010000000475,0.40000000596,0.0399999991059,8.14999961853,7.69999980927,12.3800001144
"2004-11-08 01:00:00",11.9099998474,0.0010000000475,0.40000000596,0.0399999991059,8.11999988556,7.59999990463,12.3599996567
"2004-11-08 02:00:00",11.8599996567,0.0010000000475,0.40000000596,0.0399999991059,8.14000034332,7.59999990463,12.3599996567
"2004-11-08 03:00:00",11.7700004578,0.0010000000475,0.40000000596,0.0399999991059,8.11999988556,7.69999980927,12.3400001526
"2004-11-08 04:00:00",11.5600004196,0.0010000000475,0.40000000596,0.0399999991059,8.10000038147,7.59999990463,12.3400001526
"2004-11-08 05:00:00",11.8800001144,0.0010000000475,0.40000000596,0.0399999991059,8.09000015259,7.40000009537,12.3199996948
"2004-11-08 06:00:00",12.4200000763,0.0010000000475,0.40000000596,0.0399999991059,8.05000019073,7.40000009537,12.3199996948
"2004-11-08 07:00:00",12.5399999619,0.0010000000475,0.40000000596,0.0399999991059,7.84999990463,7.19999980927,12.3199996948
"2004-11-08 08:00:00",12.4600000381,0.0010000000475,0.40000000596,0.0399999991059,7.86999988556,7.09999990463,12.3299999237
"2004-11-08 09:00:00",12.2700004578,0.0010000000475,0.40000000596,0.0399999991059,8.18999958038,7.0,12.6199998856
"2004-11-08 10:00:00",13.3400001526,0.0010000000475,0.40000000596,0.0399999991059,8.14000034332,7.0,12.6300001144
"2004-11-08 11:00:00",14.1700000763,0.361999988556,0.5,0.0599999986589,7.86999988556,12.8000001907,12.7100000381
"2004-11-08 12:00:00",14.9200000763,0.204999998212,0.600000023842,0.0599999986589,7.90000009537,16.2999992371,13.2700004578
"2004-11-08 13:00:00",15.4200000763,0.00200000009499,0.5,0.0500000007451,7.82999992371,14.5,13.2899999619
"2004-11-08 14:00:00",15.029999733,0.00200000009499,0.5,0.0500000007451,7.82000017166,12.8000001907,13.2600002289
"2004-11-08 15:00:00",14.6800003052,0.0010000000475,0.40000000596,0.0500000007451,7.84999990463,11.6000003815,12.720000267
"2004-11-08 16:00:00",14.1000003815,0.0010000000475,0.40000000596,0.0399999991059,7.98000001907,11.0,12.5799999237
"2004-11-08 17:00:00",14.3000001907,0.0010000000475,0.40000000596,0.0399999991059,7.98000001907,9.80000019073,12.5100002289
"2004-11-08 18:00:00",13.5100002289,0.0010000000475,0.40000000596,0.0399999991059,7.94000005722,9.10000038147,12.4799995422
"2004-11-08 19:00:00",13.0600004196,0.0010000000475,0.40000000596,0.0399999991059,7.92999982834,8.5,12.4600000381
"2004-11-08 20:00:00",13.3999996185,0.0010000000475,0.40000000596,0.0399999991059,7.86000013351,8.39999961853,12.4399995804
"2004-11-08 21:00:00",12.1099996567,0.0010000000475,0.40000000596,0.0399999991059,7.88999986649,8.0,12.4099998474
"2004-11-08 22:00:00",10.8199996948,0.0010000000475,0.40000000596,0.0399999991059,8.18999958038,7.90000009537,12.3900003433
"2004-11-08 23:00:00",10.4499998093,0.0010000000475,0.40000000596,0.0399999991059,8.17000007629,7.80000019073,12.3699998856
"2004-11-09 00:00:00",9.07999992371,0.0010000000475,0.40000000596,0.0399999991059,8.14999961853,8.0,12.3500003815
"2004-11-09 01:00:00",8.47000026703,0.0010000000475,0.40000000596,0.0399999991059,8.02999973297,7.90000009537,12.3299999237
"2004-11-09 02:00:00",8.47999954224,0.0010000000475,0.40000000596,0.0399999991059,7.98999977112,8.10000038147,12.3100004196
"2004-11-09 03:00:00",7.88000011444,0.0010000000475,0.40000000596,0.0399999991059,7.94999980927,8.19999980927,12.2899999619
"2004-11-09 04:00:00",7.30000019073,0.0010000000475,0.40000000596,0.0399999991059,7.90999984741,8.19999980927,12.2700004578
"2004-11-09 05:00:00",7.30999994278,0.0010000000475,0.40000000596,0.0399999991059,7.86000013351,8.60000038147,12.2600002289
"2004-11-09 06:00:00",7.15000009537,0.0010000000475,0.300000011921,0.0399999991059,7.82000017166,8.89999961853,12.25
"2004-11-09 07:00:00",6.53999996185,0.0010000000475,0.40000000596,0.0399999991059,7.78999996185,9.10000038147,12.2299995422
"2004-11-09 08:00:00",6.82000017166,0.0010000000475,0.40000000596,0.0399999991059,7.76999998093,9.0,12.220000267